User: anonymous   Login
Location: Unspecified
(0.0000°N, 0.0000°E)
Time: 05:58:46
(UTC+00:00)
Language:

COSMOS 2463 - Orbit

View from above orbital plane
View from above orbital plane
View from above satellite
View from above satellite

Ground track
Ground track

The orbit data is extracted from the following two-line orbital elements,

1 36519U 10017A   17344.57586936 +.00000045 +00000-0 +32218-4 0  9990
2 36519 082.9617 014.6006 0037693 118.2188 242.2784 13.71419243381649
Epoch (UTC): 10 December 2017 13:49:15
Eccentricity: 0.0037693
inclination: 82.9617°
perigee height: 966 km
apogee height: 1022 km
right ascension of ascending node: 14.6006°
argument of perigee: 118.2188°
revolutions per day: 13.71419243
mean anomaly at epoch: 242.2784°
orbit number at epoch: 38164

The dashed part of the orbit path shows where the satellite is in the earth's shadow,  

DLR